Showing default

BEIDOU 3 G3, 45807

Orbit data source: Space-Track

BEIDOU 3 G3, 45807 is a payload satellite owned by CNSA (CN) in GEO that was launched on Tue, 23 Jun 2020 UTC via a CHANG ZHENG 3B launch vehicle from the Xichang Space Center, China (XSC). Payload-class satellites include a variety of spacecraft equipped with specific instruments for various scientific and technological missions. These include communications satellites like Starlink; space stations such as the ISS; scientific satellites like the Hubble; Earth observation satellites from companies like Planet Labs, Umbra, and HawkEye 360; GPS; miniature CubeSats for education and research; and military/defense satellites.

Not visible in the next 10 days
Identifier
45807, 2020-040A
Orbit
GEO
Country
Flag of CNCN / PRC
Related business
Manufacturer
CAST
Mission
Operational Defense Navigation
Bus & Motor
DFH-3B, FY-25
Mass
~3,060 kg wet, 1,700 kg dry
Launch date (UTC)
2020-06-23 (5 years ago)
Launch vehicle
CHANG ZHENG 3B
Launch site
Xichang Space Center, China (XSC)
Object type
Payload
Rocket body
Debris
Shape & HBR
Box + 2 Pan, Unknown HBR
Radar Cross Section
13.998 m², Large (>1 m²)

Expand to show TLE details & history
Last TLE update: 9 hours ago

TLE from 9 hours ago
0 BEIDOU 3 G3
1 45807U 20040A   25304.22684167 -.00000342  00000-0  00000-0 0  9990
2 45807   1.8837  66.1300 0004488 311.6836 214.2193  1.00273303 19776
Epoch: 2025-10-31T05:26Z
TLE epoch observation values (Epoch: 2025-10-31T05:26:39.120Z)
Latitude
0.45665°
Longitude
110.53863°
Altitude
35,801.345 km
Speed
3.074 km/s
True Right ascension
15h 27m 54s
True Declination
0° 27' 22"
Sunlit
Object was in daylight at epoch
Visualization orbit readout
Latitude
Unknown
Longitude
Unknown
Altitude
Unknown
Speed
Unknown
Apparent Right ascension
Unknown
Apparent Declination
Unknown
Sunlit
N/A
Visualization observer readout
Local Sidereal Time
10:22:04
Azimuth
Unknown
Elevation
Unknown
Doppler factor
Unknown
Orbital elements
Apogee altitude
35,806.162 km
Perigee altitude
35,768.314 km
Semi-major axis
42,165.375 km
Eccentricity
0.00045
Inclination
1.8837°
RAAN
66.13°
Arg. of periapsis
311.6836°
True anomaly
214.19039°
Mean anomaly
214.2193°
Eccentric anomaly
214.20484°
Mean motion
0.25067 °/min
Orbital period
1,436.13 mins
BSTAR
0
Loading maneuver chart data...
Computing Atmospheric mass density...
Loading historical data...
Loading historical data...
Loading historical data...
Loading historical data...
Loading historical data...
Loading historical data...
Loading historical data...
Other satellites on launch #40 in the year 2020 (2020-06-23 UTC)

Documentation

Showing up to 5 results
|